Zurück zum Katalog

STARLINK-3075

AktivKommunikationVLEO
NORAD 49409·PAYLOAD·🇺🇸 United States

Gestartet Nov 13, 2021 von Cape Canaveral Space Force Station

Loading…

Nächste Überflüge (nächste 24 Stunden)

TLE

AktuellSource: CelesTrak SupGP

Epoche: Sep 14, 2026, 13:22 UTC

1 49409C 21104B   26257.55743056  .00009863  00000+0  29924-3 0  2572
2 49409  53.1573  87.6468 0001098  96.5750 343.7653 15.33548153    11

Verfolge STARLINK-3075 in Echtzeit mit AllMySat

Download on the App Store